Location: Brompton
(51.4000°N, 0.5333°E)
Time: 08:10:05
(UTC+00:00)

Cosmos 2344 - Pass Details

Date: 11 May 2021
Orbit: 1239 x 3003 km, 63.3° (Epoch: 12 June)

Event Time Altitude Azimuth Distance (km) Brightness Sun altitude
Rises 23:26:10 0° 313° (NW) 4,432 7.2 -20.2°
Reaches altitude 10° 23:28:44 10° 314° (NW) 3,574 6.6 -20.2°
Maximum altitude 23:37:36 84° 44° (NE) 1,781 4.3 -20.4°
Drops below altitude 10° 23:49:58 10° 135° (SE) 4,861 6.2 -20.5°
Enters shadow 23:51:07 - 135° (SE) 5,210 6.3 -20.5°
